Afton Municipal Airport, WY

7:21 PM MST on December 15, 2019 (GMT -0700)
Afton Municipal

Weather History for KAFO - October, 2019

Change the Weather History Date:

Monday, October 28, 2019

  Actual Average Record
Temperature  
Mean Temperature 12 °F -  
Max Temperature 23 °F 53 °F 64 °F (2018)
Min Temperature 0 °F 20 °F 17 °F (2015)
Degree Days  
Heating Degree Days 54    
Moisture  
Dew Point 6 °F    
Average Humidity 77    
Maximum Humidity 93    
Minimum Humidity 63    
Precipitation  
Precipitation 0.00 in - - ()
Sea Level Pressure  
Sea Level Pressure 29.98 in    
Wind  
Wind Speed 3 mph ()    
Max Wind Speed 12 mph    
Max Gust Speed -    
Visibility 8.2 miles    
Events Snow    
Averages and records for this station are not official NWS values.
T = Trace of Precipitation, MM = Missing Value Source: Averaged Metar Reports

Daily Weather History Graph

Daily Weather History Graph

Search for Another Location

Airport or City:

Astronomy

Oct. 28, 2019 Rise Set
Actual Time 7:52 AM MDT 6:21 PM MDT
Civil Twilight 7:23 AM MDT 6:51 PM MDT
Nautical Twilight 6:50 AM MDT 7:24 PM MDT
Astronomical Twilight 6:17 AM MDT 7:56 PM MDT
Moon 8:17 AM MDT (10/28) 7:09 PM MDT (10/28)
Length of Visible Light 11h 27m
Length of Day
10h 29m
New Moon, 1% of the Moon is Illuminated
Oct 28
New Moon
Nov 4
First Quarter
Nov 12
Full
Nov 19
Last Quarter
Nov 26
New

Hourly Weather History & Observations

Time (MDT) Temp. Windchill Dew Point Humidity Pressure Visibility Wind Dir Wind Speed Gust Speed Precip Events Conditions
12:15 AM 6.8 °F -3.5 °F 1.4 °F 79% 30.11 in 10.0 mi South 5.8 mph - N/A   Clear
12:35 AM 5.0 °F - 1.4 °F 85% 30.11 in 10.0 mi Calm Calm - N/A   Clear
12:55 AM 5.0 °F - 1.4 °F 85% 30.11 in 10.0 mi North - - N/A   Clear
1:15 AM 5.0 °F -4.1 °F 1.4 °F 85% 30.11 in 10.0 mi SSE 4.6 mph - N/A   Clear
1:35 AM 3.2 °F -4.2 °F -0.4 °F 85% 30.11 in 10.0 mi SSE 3.5 mph - N/A   Clear
1:55 AM 5.0 °F -2.1 °F -0.4 °F 78% 30.10 in 10.0 mi South 3.5 mph - N/A   Clear
2:15 AM 3.2 °F - -0.4 °F 85% 30.10 in 10.0 mi Calm Calm - N/A   Clear
2:35 AM 3.2 °F -4.2 °F -2.2 °F 78% 30.10 in 10.0 mi SSE 3.5 mph - N/A   Clear
2:55 AM 1.4 °F -9.9 °F -2.2 °F 85% 30.09 in 10.0 mi South 5.8 mph - N/A   Clear
3:15 AM 3.2 °F -7.8 °F -2.2 °F 78% 30.09 in 10.0 mi South 5.8 mph - N/A   Clear
3:35 AM 3.2 °F -6.2 °F -2.2 °F 78% 30.08 in 10.0 mi South 4.6 mph - N/A   Clear
3:55 AM 1.4 °F -6.2 °F -4.0 °F 78% 30.09 in 10.0 mi South 3.5 mph - N/A   Clear
4:35 AM 1.4 °F -8.3 °F -4.0 °F 78% 30.08 in 10.0 mi South 4.6 mph - N/A   Clear
4:55 AM 1.4 °F -6.2 °F -4.0 °F 78% 30.07 in 10.0 mi South 3.5 mph - N/A   Clear
5:15 AM -0.4 °F - -4.0 °F 85% 30.06 in 10.0 mi Calm Calm - N/A   Clear
5:35 AM 1.4 °F -6.2 °F -4.0 °F 78% 30.06 in 10.0 mi South 3.5 mph - N/A   Clear
5:55 AM -0.4 °F - -4.0 °F 85% 30.07 in 10.0 mi Calm Calm - N/A   Clear
6:15 AM 1.4 °F - -4.0 °F 78% 30.06 in 10.0 mi Calm Calm - N/A   Clear
6:35 AM 1.4 °F -8.3 °F -4.0 °F 78% 30.06 in 10.0 mi South 4.6 mph - N/A   Scattered Clouds
6:55 AM 1.4 °F -9.9 °F -4.0 °F 78% 30.05 in 10.0 mi SSW 5.8 mph - N/A   Scattered Clouds
7:15 AM 1.4 °F - -4.0 °F 78% 30.05 in 10.0 mi Calm Calm - N/A   Clear
7:35 AM 1.4 °F - -4.0 °F 78% 30.05 in 10.0 mi Calm Calm - N/A   Clear
7:55 AM 1.4 °F - -2.2 °F 85% 30.05 in 10.0 mi Calm Calm - N/A   Mostly Cloudy
8:15 AM 3.2 °F - -2.2 °F 78% 30.05 in 10.0 mi Calm Calm - N/A   Mostly Cloudy
8:55 AM 3.2 °F - -0.4 °F 85% 30.06 in 10.0 mi Calm Calm - N/A   Overcast
9:15 AM 5.0 °F - -0.4 °F 78% 30.06 in 10.0 mi Calm Calm - N/A   Overcast
9:35 AM 5.0 °F - 1.4 °F 85% 30.06 in 10.0 mi Calm Calm - N/A   Overcast
9:55 AM 6.8 °F - 3.2 °F 85% 30.05 in 10.0 mi Calm Calm - N/A   Overcast
10:15 AM 8.6 °F - 3.2 °F 79% 30.05 in 10.0 mi Calm Calm - N/A   Overcast
10:35 AM 10.4 °F - 3.2 °F 73% 30.05 in 10.0 mi Calm Calm - N/A   Overcast
10:55 AM 10.4 °F - 5.0 °F 79% 30.03 in 10.0 mi Calm Calm - N/A   Overcast
11:15 AM 12.2 °F - 5.0 °F 73% 30.03 in 10.0 mi Calm Calm - N/A   Overcast
11:35 AM 14.0 °F - 5.0 °F 67% 30.02 in 10.0 mi Calm Calm - N/A   Overcast
11:55 AM 14.0 °F - 5.0 °F 67% 30.02 in 10.0 mi Calm Calm - N/A   Overcast
12:15 PM 14.0 °F - 6.8 °F 73% 30.01 in 5.0 mi Calm Calm - N/A   Haze
12:35 PM 15.8 °F - 8.6 °F 73% 30.00 in 3.0 mi Calm Calm - N/A Snow Light Snow
12:55 PM 17.6 °F - 10.4 °F 73% 29.99 in 3.0 mi Calm Calm - N/A Snow Light Snow
1:15 PM 17.6 °F - 10.4 °F 73% 29.98 in 3.0 mi North - - N/A   Haze
1:35 PM 17.6 °F - 12.2 °F 79% 29.97 in 1.8 mi Calm Calm - N/A Snow Light Snow
1:55 PM 19.4 °F - 14.0 °F 80% 29.95 in 2.5 mi Calm Calm - N/A Snow Light Snow
2:15 PM 21.2 °F 13.6 °F 14.0 °F 74% 29.94 in 4.0 mi SSE 5.8 mph - N/A Snow Light Snow
2:35 PM 21.2 °F 14.9 °F 14.0 °F 74% 29.93 in 5.0 mi South 4.6 mph - N/A   Haze
2:55 PM 21.2 °F 13.6 °F 14.0 °F 74% 29.92 in 4.0 mi SE 5.8 mph - N/A Snow Light Snow
3:15 PM 23.0 °F 13.9 °F 14.0 °F 68% 29.91 in 10.0 mi SSE 8.1 mph - N/A   Overcast
3:35 PM 23.0 °F 15.8 °F 12.2 °F 63% 29.92 in 10.0 mi SSW 5.8 mph - N/A   Overcast
3:55 PM 21.2 °F 11.7 °F 12.2 °F 68% 29.92 in 10.0 mi WSW 8.1 mph - N/A   Overcast
4:15 PM 21.2 °F - 12.2 °F 68% 29.91 in 5.0 mi Calm Calm - N/A Snow Light Snow
4:35 PM 21.2 °F - 12.2 °F 68% 29.91 in 4.0 mi North - - N/A Snow Light Snow
4:55 PM 21.2 °F - 14.0 °F 74% 29.91 in 5.0 mi Calm Calm - N/A   Haze
5:15 PM 21.2 °F - 12.2 °F 68% 29.90 in 10.0 mi North - - N/A   Overcast
5:35 PM 21.2 °F - 14.0 °F 74% 29.90 in 4.0 mi Calm Calm - N/A Snow Light Snow
5:55 PM 19.4 °F - 14.0 °F 80% 29.90 in 3.0 mi Calm Calm - N/A Snow Light Snow
6:15 PM 19.4 °F - 15.8 °F 86% 29.89 in 5.0 mi Calm Calm - N/A   Overcast
6:35 PM 19.4 °F 12.8 °F 15.8 °F 86% 29.90 in 5.0 mi SW 4.6 mph - N/A   Overcast
6:55 PM 19.4 °F 12.8 °F 15.8 °F 86% 29.90 in 4.0 mi SSE 4.6 mph - N/A Snow Light Snow
7:15 PM 19.4 °F - 15.8 °F 86% 29.89 in 7.0 mi North - - N/A Snow Light Snow
7:35 PM 19.4 °F - 17.6 °F 93% 29.89 in 4.0 mi North - - N/A Snow Light Snow
7:55 PM 19.4 °F 14.3 °F 15.8 °F 86% 29.89 in 5.0 mi SSE 3.5 mph - N/A Snow Light Snow
8:15 PM 21.2 °F 10.1 °F 14.0 °F 74% 29.88 in 7.0 mi SSE 10.4 mph - N/A   Overcast
8:35 PM 21.2 °F 10.9 °F 12.2 °F 68% 29.87 in 10.0 mi SE 9.2 mph - N/A   Overcast
8:55 PM 21.2 °F 12.6 °F 12.2 °F 68% 29.87 in 10.0 mi SSE 6.9 mph - N/A   Overcast
9:15 PM 21.2 °F 10.1 °F 12.2 °F 68% 29.86 in 10.0 mi SE 10.4 mph - N/A   Overcast
9:35 PM 21.2 °F 10.1 °F 12.2 °F 68% 29.86 in 10.0 mi SSE 10.4 mph - N/A   Overcast
9:55 PM 21.2 °F 9.5 °F 12.2 °F 68% 29.86 in 10.0 mi SSE 11.5 mph - N/A   Overcast
10:15 PM 21.2 °F 12.6 °F 12.2 °F 68% 29.85 in 10.0 mi SSE 6.9 mph - N/A   Overcast
10:35 PM 21.2 °F 12.6 °F 12.2 °F 68% 29.85 in 10.0 mi SSE 6.9 mph - N/A   Overcast
10:55 PM 21.2 °F 12.6 °F 12.2 °F 68% 29.84 in 10.0 mi South 6.9 mph - N/A   Overcast
11:15 PM 19.4 °F 10.4 °F 14.0 °F 80% 29.84 in 10.0 mi SSE 6.9 mph - N/A   Overcast
11:35 PM 21.2 °F 10.1 °F 14.0 °F 74% 29.83 in 10.0 mi South 10.4 mph - N/A   Overcast
11:55 PM 21.2 °F 11.7 °F 15.8 °F 80% 29.83 in 7.0 mi South 8.1 mph - N/A   Overcast